Santorini Island, Greece

12:11 PM EEST on August 20, 2017 (GMT +0300)
Santorini

Weather History for LGSR - October, 2013

Change the Weather History Date:

Thursday, October 31, 2013

  Actual Average Record
Temperature  
Mean Temperature 64 °F -  
Max Temperature 71 °F 67 °F 78 °F (2008)
Min Temperature 57 °F 58 °F 55 °F (2005)
Degree Days  
Heating Degree Days 1    
Growing Degree Days 14 (Base 50)    
Moisture  
Dew Point 58 °F    
Average Humidity 81    
Maximum Humidity 94    
Minimum Humidity 64    
Precipitation  
Precipitation 0.00 in - - ()
Sea Level Pressure  
Sea Level Pressure 30.07 in    
Wind  
Wind Speed 6 mph ()    
Max Wind Speed 13 mph    
Max Gust Speed -    
Visibility 5.9 miles    
Events Rain    
Averages and records for this station are not official NWS values.
T = Trace of Precipitation, MM = Missing Value Source: Averaged Metar Reports

Daily Weather History Graph

Daily Weather History Graph

Search for Another Location

Airport or City:

Trip Planner

Search our weather history database for the weather conditions in past years. The results will help you decide how hot, cold, wet, or windy it might be!

Date:

Astronomy

Oct. 31, 2013 Rise Set
Actual Time 6:40 AM EET 5:22 PM EET
Civil Twilight 6:13 AM EET 5:49 PM EET
Nautical Twilight 5:43 AM EET 6:19 PM EET
Astronomical Twilight 5:13 AM EET 6:49 PM EET
Moon 3:15 AM EET (10/31) 3:25 PM EET (10/31)
Length of Visible Light 11h 35m
Length of Day
10h 42m
Waning Crescent, 12% of the Moon is Illuminated
Oct 31
Waning Crescent
Nov 3
New
Nov 10
First Quarter
Nov 17
Full
Nov 25
Last Quarter

Hourly Weather History & Observations

Time (EET) Temp. Dew Point Humidity Pressure Visibility Wind Dir Wind Speed Gust Speed Precip Events Conditions
12:20 AM 62.6 °F 59.0 °F 88% 30.04 in - WNW 5.8 mph - N/A   Unknown
12:50 AM 62.6 °F 59.0 °F 88% 30.04 in - West 4.6 mph - N/A Rain Light Rain
1:20 AM 62.6 °F 59.0 °F 88% 30.04 in - WNW 4.6 mph - N/A Rain Light Rain
1:50 AM 62.6 °F 59.0 °F 88% 30.04 in - West 4.6 mph - N/A   Unknown
2:20 AM 60.8 °F 57.2 °F 88% 30.04 in - West 4.6 mph - N/A Rain Light Rain
2:50 AM 60.8 °F 57.2 °F 88% 30.04 in - West 5.8 mph - N/A Rain Light Rain
3:20 AM 59.0 °F 55.4 °F 88% 30.04 in - West 5.8 mph - N/A Rain Light Rain
3:50 AM 59.0 °F 57.2 °F 94% 30.04 in - West 5.8 mph - N/A Rain Light Rain
4:20 AM 59.0 °F 57.2 °F 94% 30.04 in - Variable 3.5 mph - N/A Rain Light Rain
4:50 AM 59.0 °F 57.2 °F 94% 30.04 in - Variable 3.5 mph - N/A Rain Light Rain
5:20 AM 57.2 °F 55.4 °F 94% 30.04 in - West 4.6 mph - N/A Rain Light Rain
5:50 AM 59.0 °F 57.2 °F 94% 30.04 in - WSW 4.6 mph - N/A Rain Light Rain
6:20 AM 60.8 °F 57.2 °F 88% 30.04 in - West 4.6 mph - N/A Rain Light Rain
6:50 AM 59.0 °F 57.2 °F 94% 30.06 in 6.2 mi West 4.6 mph - N/A   Partly Cloudy
7:20 AM 60.8 °F 57.2 °F 88% 30.06 in 5.6 mi WSW 5.8 mph - N/A   Partly Cloudy
7:50 AM 62.6 °F 60.8 °F 94% 30.06 in 5.6 mi West 4.6 mph - N/A   Partly Cloudy
8:20 AM 64.4 °F 60.8 °F 88% 30.09 in 5.6 mi Variable 3.5 mph - N/A   Partly Cloudy
8:50 AM 66.2 °F 60.8 °F 83% 30.09 in 5.6 mi North 5.8 mph - N/A   Partly Cloudy
9:20 AM 68.0 °F 59.0 °F 73% 30.09 in 5.6 mi North 8.1 mph - N/A   Partly Cloudy
9:50 AM 68.0 °F 59.0 °F 73% 30.09 in 5.6 mi North 8.1 mph - N/A   Partly Cloudy
10:20 AM 69.8 °F 59.0 °F 68% 30.09 in 5.6 mi NW 5.8 mph - N/A   Partly Cloudy
10:50 AM 69.8 °F 59.0 °F 68% 30.09 in 5.6 mi NNW 6.9 mph - N/A   Partly Cloudy
11:20 AM 69.8 °F 59.0 °F 68% 30.09 in 5.6 mi NNW 6.9 mph - N/A   Partly Cloudy
11:50 AM 69.8 °F 59.0 °F 68% 30.09 in 6.2 mi North 6.9 mph - N/A   Partly Cloudy
12:20 PM 69.8 °F 59.0 °F 68% 30.06 in 6.2 mi North 9.2 mph - N/A   Partly Cloudy
12:50 PM 69.8 °F 59.0 °F 68% 30.06 in 6.2 mi NNW 8.1 mph - N/A   Partly Cloudy
1:20 PM 71.6 °F 59.0 °F 64% 30.06 in 6.2 mi North 9.2 mph - N/A   Partly Cloudy
1:50 PM 71.6 °F 60.8 °F 69% 30.06 in 6.2 mi North 9.2 mph - N/A   Partly Cloudy
2:20 PM 69.8 °F 60.8 °F 73% 30.06 in 6.2 mi North 10.4 mph - N/A   Partly Cloudy
2:50 PM 69.8 °F 59.0 °F 68% 30.06 in 6.2 mi North 11.5 mph - N/A   Partly Cloudy
3:20 PM 69.8 °F 59.0 °F 68% 30.06 in 6.2 mi North 11.5 mph - N/A   Partly Cloudy
3:50 PM 69.8 °F 60.8 °F 73% 30.06 in 6.2 mi North 11.5 mph - N/A   Partly Cloudy
4:20 PM 68.0 °F 59.0 °F 73% 30.06 in 6.2 mi North 11.5 mph - N/A   Partly Cloudy
4:50 PM 68.0 °F 59.0 °F 73% 30.06 in 6.2 mi North 9.2 mph - N/A   Partly Cloudy
5:20 PM 66.2 °F 59.0 °F 78% 30.06 in 5.6 mi North 8.1 mph - N/A   Partly Cloudy
5:50 PM 66.2 °F 60.8 °F 83% 30.06 in 5.6 mi North 8.1 mph - N/A   Partly Cloudy
6:20 PM 66.2 °F 60.8 °F 83% 30.09 in 5.6 mi NNW 4.6 mph - N/A   Partly Cloudy
6:50 PM 64.4 °F 57.2 °F 77% 30.09 in 5.6 mi West 4.6 mph - N/A   Partly Cloudy
7:20 PM 64.4 °F 57.2 °F 77% 30.09 in 6.2 mi Variable 3.5 mph - N/A   Partly Cloudy
7:50 PM 62.6 °F 57.2 °F 82% 30.09 in 6.2 mi WNW 5.8 mph - N/A   Partly Cloudy
8:20 PM 62.6 °F 57.2 °F 82% 30.09 in - WSW 8.1 mph - N/A   Unknown
8:50 PM 60.8 °F 57.2 °F 88% 30.09 in - West 6.9 mph - N/A Rain Light Rain
9:20 PM 62.6 °F 57.2 °F 82% 30.12 in - West 6.9 mph - N/A Rain Light Rain
9:50 PM 62.6 °F 57.2 °F 82% 30.12 in - WNW 6.9 mph - N/A Rain Light Rain
10:20 PM 60.8 °F 57.2 °F 88% 30.12 in - WNW 6.9 mph - N/A Rain Light Rain
10:50 PM 60.8 °F 57.2 °F 88% 30.12 in - NW 5.8 mph - N/A Rain Light Rain
11:20 PM 64.4 °F 59.0 °F 83% 30.12 in - North 12.7 mph - N/A Rain Light Rain
11:50 PM 64.4 °F 57.2 °F 77% 30.12 in - North 11.5 mph - N/A   Unknown